Time,TemperatureF,DewpointF,PressureIn,WindDirection,WindDirectionDegrees,WindSpeedMPH,WindSpeedGustMPH,Humidity,HourlyPrecipIn,Conditions,Clouds,dailyrainin,SoftwareType,DateUTC
2013-04-28 00:01:00,59.2,54.0,30.10,North,358,0.0,-999.0,83,0.00,,,0.00,Wunderground v.1.12,2013-04-28 04:01:00,
2013-04-28 00:03:00,59.2,54.0,30.10,NW,324,0.0,-999.0,83,0.00,,,0.00,Wunderground v.1.12,2013-04-28 04:03:00,
2013-04-28 00:05:00,59.2,54.0,30.10,NW,324,0.0,-999.0,83,0.00,,,0.00,Wunderground v.1.12,2013-04-28 04:05:00,
2013-04-28 00:06:00,59.0,53.8,30.10,NW,324,0.0,-999.0,83,0.00,,,0.00,Wunderground v.1.12,2013-04-28 04:06:00,
2013-04-28 00:11:00,58.9,54.1,30.12,SE,136,0.0,-999.0,84,0.00,,,0.00,Wunderground v.1.12,2013-04-28 04:11:00,
2013-04-28 00:13:00,58.9,54.1,30.12,SE,136,0.0,-999.0,84,0.00,,,0.00,Wunderground v.1.12,2013-04-28 04:13:00,
2013-04-28 00:18:00,58.9,54.1,30.12,South,191,0.0,-999.0,84,0.00,,,0.00,Wunderground v.1.12,2013-04-28 04:18:00,
2013-04-28 00:23:00,58.9,54.4,30.12,South,190,0.0,-999.0,85,0.00,,,0.00,Wunderground v.1.12,2013-04-28 04:23:00,
2013-04-28 00:29:00,58.7,54.2,30.16,East,88,0.0,-999.0,85,0.00,,,0.00,Wunderground v.1.12,2013-04-28 04:29:00,
2013-04-28 00:34:00,58.7,54.5,30.16,East,85,0.0,-999.0,86,0.00,,,0.00,Wunderground v.1.12,2013-04-28 04:34:00,
2013-04-28 00:40:00,58.6,54.4,30.16,East,85,0.0,-999.0,86,0.00,,,0.00,Wunderground v.1.12,2013-04-28 04:40:00,
2013-04-28 00:45:00,58.6,54.7,30.16,East,84,0.0,-999.0,87,0.00,,,0.00,Wunderground v.1.12,2013-04-28 04:45:00,
2013-04-28 00:51:00,58.4,54.5,30.16,West,267,0.0,-999.0,87,0.00,,,0.00,Wunderground v.1.12,2013-04-28 04:51:00,
2013-04-28 00:56:00,58.4,54.5,30.14,ENE,70,0.0,-999.0,87,0.00,,,0.00,Wunderground v.1.12,2013-04-28 04:56:00,
2013-04-28 01:03:00,58.3,54.8,30.14,North,350,0.0,-999.0,88,0.00,,,0.00,Wunderground v.1.12,2013-04-28 05:03:00,
2013-04-28 01:08:00,58.1,54.6,30.14,North,356,0.0,-999.0,88,0.00,,,0.00,Wunderground v.1.12,2013-04-28 05:08:00,
2013-04-28 01:14:00,58.0,54.5,30.14,North,6,0.0,-999.0,88,0.00,,,0.00,Wunderground v.1.12,2013-04-28 05:14:00,
2013-04-28 01:19:00,58.0,54.5,30.14,East,91,0.0,-999.0,88,0.00,,,0.00,Wunderground v.1.12,2013-04-28 05:19:00,
2013-04-28 01:25:00,57.8,54.3,30.14,NNE,17,0.0,-999.0,88,0.00,,,0.00,Wunderground v.1.12,2013-04-28 05:25:00,
2013-04-28 01:30:00,57.8,54.6,30.13,NE,50,0.0,-999.0,89,0.00,,,0.00,Wunderground v.1.12,2013-04-28 05:30:00,
2013-04-28 01:36:00,57.6,54.4,30.13,NE,50,0.0,-999.0,89,0.00,,,0.00,Wunderground v.1.12,2013-04-28 05:36:00,
2013-04-28 01:41:00,57.6,54.4,30.11,NE,50,0.0,-999.0,89,0.00,,,0.00,Wunderground v.1.12,2013-04-28 05:41:00,
2013-04-28 01:46:00,57.5,54.3,30.11,NE,38,0.0,-999.0,89,0.00,,,0.00,Wunderground v.1.12,2013-04-28 05:46:00,
2013-04-28 01:53:00,57.3,54.1,30.11,NE,43,0.0,-999.0,89,0.00,,,0.00,Wunderground v.1.12,2013-04-28 05:53:00,
2013-04-28 01:58:00,57.3,54.4,30.10,North,2,0.0,-999.0,90,0.00,,,0.00,Wunderground v.1.12,2013-04-28 05:58:00,
2013-04-28 02:03:00,57.3,54.4,30.10,NNE,31,0.0,-999.0,90,0.00,,,0.00,Wunderground v.1.12,2013-04-28 06:03:00,
2013-04-28 02:08:00,57.2,54.3,30.10,NNE,23,1.0,-999.0,90,0.00,,,0.00,Wunderground v.1.12,2013-04-28 06:08:00,
2013-04-28 02:13:00,57.2,54.3,30.10,SSE,158,2.0,-999.0,90,0.00,,,0.00,Wunderground v.1.12,2013-04-28 06:13:00,
2013-04-28 02:18:00,57.2,54.3,30.10,North,359,0.0,-999.0,90,0.00,,,0.00,Wunderground v.1.12,2013-04-28 06:18:00,
2013-04-28 02:23:00,57.0,54.4,30.10,NNE,31,0.0,-999.0,91,0.00,,,0.00,Wunderground v.1.12,2013-04-28 06:23:00,
2013-04-28 02:29:00,57.0,54.4,30.10,NE,40,2.0,-999.0,91,0.00,,,0.00,Wunderground v.1.12,2013-04-28 06:29:00,
2013-04-28 02:34:00,57.0,54.4,30.10,North,2,0.0,-999.0,91,0.00,,,0.00,Wunderground v.1.12,2013-04-28 06:34:00,
2013-04-28 02:39:00,56.9,54.3,30.10,North,3,0.0,-999.0,91,0.00,,,0.00,Wunderground v.1.12,2013-04-28 06:39:00,
2013-04-28 02:44:00,56.9,54.3,30.08,North,359,0.0,-999.0,91,0.00,,,0.00,Wunderground v.1.12,2013-04-28 06:44:00,
2013-04-28 02:49:00,56.9,54.3,30.08,NNE,17,0.0,-999.0,91,0.00,,,0.00,Wunderground v.1.12,2013-04-28 06:49:00,
2013-04-28 02:54:00,56.9,54.3,30.08,WNW,290,1.0,-999.0,91,0.00,,,0.00,Wunderground v.1.12,2013-04-28 06:54:00,
2013-04-28 02:59:00,56.9,54.3,30.08,ENE,67,0.0,-999.0,91,0.00,,,0.00,Wunderground v.1.12,2013-04-28 06:59:00,
2013-04-28 03:04:00,56.9,54.3,30.08,NNE,14,0.0,-999.0,91,0.00,,,0.00,Wunderground v.1.12,2013-04-28 07:04:00,
2013-04-28 03:09:00,56.9,54.6,30.08,ENE,57,0.0,-999.0,92,0.00,,,0.00,Wunderground v.1.12,2013-04-28 07:09:00,
2013-04-28 03:15:00,56.9,54.6,30.07,ENE,64,0.0,-999.0,92,0.00,,,0.00,Wunderground v.1.12,2013-04-28 07:15:00,
2013-04-28 03:20:00,56.9,54.6,30.07,ENE,77,0.0,-999.0,92,0.00,,,0.00,Wunderground v.1.12,2013-04-28 07:20:00,
2013-04-28 03:25:00,56.9,54.6,30.07,NNE,16,0.0,-999.0,92,0.00,,,0.00,Wunderground v.1.12,2013-04-28 07:25:00,
2013-04-28 03:30:00,56.9,54.6,30.07,ESE,112,0.0,-999.0,92,0.00,,,0.00,Wunderground v.1.12,2013-04-28 07:30:00,
2013-04-28 03:35:00,56.9,54.6,30.07,ENE,78,0.0,-999.0,92,0.00,,,0.00,Wunderground v.1.12,2013-04-28 07:35:00,
2013-04-28 03:40:00,56.9,54.6,30.06,East,99,5.0,-999.0,92,0.00,,,0.00,Wunderground v.1.12,2013-04-28 07:40:00,
2013-04-28 03:45:00,56.9,54.6,30.06,SSE,149,0.0,-999.0,92,0.00,,,0.00,Wunderground v.1.12,2013-04-28 07:45:00,
2013-04-28 03:50:00,56.9,54.6,30.06,SE,129,0.0,-999.0,92,0.00,,,0.00,Wunderground v.1.12,2013-04-28 07:50:00,
2013-04-28 03:55:00,56.9,54.6,30.06,East,81,6.0,-999.0,92,0.00,,,0.00,Wunderground v.1.12,2013-04-28 07:55:00,
2013-04-28 04:00:00,57.0,54.7,30.06,SE,142,0.0,-999.0,92,0.00,,,0.00,Wunderground v.1.12,2013-04-28 08:00:00,
2013-04-28 04:06:00,57.0,54.7,30.06,East,82,5.0,-999.0,92,0.00,,,0.00,Wunderground v.1.12,2013-04-28 08:06:00,
2013-04-28 04:11:00,57.0,54.7,30.06,ENE,72,0.0,-999.0,92,0.00,,,0.00,Wunderground v.1.12,2013-04-28 08:11:00,
2013-04-28 04:16:00,57.0,54.7,30.06,North,352,3.0,-999.0,92,0.00,,,0.00,Wunderground v.1.12,2013-04-28 08:16:00,
2013-04-28 04:21:00,57.0,54.7,30.06,NNE,14,0.0,-999.0,92,0.00,,,0.00,Wunderground v.1.12,2013-04-28 08:21:00,
2013-04-28 04:26:00,57.0,54.7,30.06,North,10,0.0,-999.0,92,0.00,,,0.00,Wunderground v.1.12,2013-04-28 08:26:00,
2013-04-28 04:31:00,57.0,54.7,30.06,ENE,65,0.0,-999.0,92,0.00,,,0.00,Wunderground v.1.12,2013-04-28 08:31:00,
2013-04-28 04:36:00,57.0,54.7,30.06,West,263,0.0,-999.0,92,0.00,,,0.00,Wunderground v.1.12,2013-04-28 08:36:00,
2013-04-28 04:41:00,57.0,54.7,30.05,NNW,342,3.0,-999.0,92,0.00,,,0.00,Wunderground v.1.12,2013-04-28 08:41:00,
2013-04-28 04:46:00,57.0,54.7,30.05,SSW,204,1.0,-999.0,92,0.00,,,0.00,Wunderground v.1.12,2013-04-28 08:46:00,
2013-04-28 04:51:00,57.0,54.7,30.05,East,98,0.0,-999.0,92,0.00,,,0.00,Wunderground v.1.12,2013-04-28 08:51:00,
2013-04-28 04:56:00,57.0,54.7,30.05,ENE,57,0.0,-999.0,92,0.00,,,0.00,Wunderground v.1.12,2013-04-28 08:56:00,
2013-04-28 05:01:00,57.0,54.7,30.05,ENE,78,0.0,-999.0,92,0.00,,,0.00,Wunderground v.1.12,2013-04-28 09:01:00,
2013-04-28 05:06:00,57.0,54.7,30.05,NNE,31,2.0,-999.0,92,0.00,,,0.00,Wunderground v.1.12,2013-04-28 09:06:00,
2013-04-28 05:11:00,57.2,54.9,30.06,NNE,17,0.0,-999.0,92,0.00,,,0.00,Wunderground v.1.12,2013-04-28 09:11:00,
2013-04-28 05:16:00,57.2,54.9,30.06,NNE,31,1.0,-999.0,92,0.00,,,0.00,Wunderground v.1.12,2013-04-28 09:16:00,
2013-04-28 05:21:00,57.2,54.9,30.06,ENE,78,0.0,-999.0,92,0.00,,,0.00,Wunderground v.1.12,2013-04-28 09:21:00,
2013-04-28 05:26:00,57.2,54.9,30.05,East,91,0.0,-999.0,92,0.00,,,0.00,Wunderground v.1.12,2013-04-28 09:26:00,
2013-04-28 05:31:00,57.2,54.9,30.05,NNW,328,0.0,-999.0,92,0.00,,,0.00,Wunderground v.1.12,2013-04-28 09:31:00,
2013-04-28 05:36:00,57.2,54.9,30.05,East,96,0.0,-999.0,92,0.00,,,0.00,Wunderground v.1.12,2013-04-28 09:36:00,
2013-04-28 05:41:00,57.2,54.9,30.05,ENE,64,0.0,-999.0,92,0.00,,,0.00,Wunderground v.1.12,2013-04-28 09:41:00,
2013-04-28 05:46:00,57.2,54.9,30.05,ENE,57,0.0,-999.0,92,0.00,,,0.00,Wunderground v.1.12,2013-04-28 09:46:00,
2013-04-28 05:51:00,57.2,54.9,30.05,North,352,0.0,-999.0,92,0.00,,,0.00,Wunderground v.1.12,2013-04-28 09:51:00,
2013-04-28 05:56:00,57.2,54.9,30.05,SSE,166,0.0,-999.0,92,0.00,,,0.00,Wunderground v.1.12,2013-04-28 09:56:00,
2013-04-28 06:01:00,57.2,54.9,30.05,SE,133,0.0,-999.0,92,0.00,,,0.00,Wunderground v.1.12,2013-04-28 10:01:00,
2013-04-28 06:06:00,57.2,54.9,30.05,NNW,335,0.0,-999.0,92,0.00,,,0.00,Wunderground v.1.12,2013-04-28 10:06:00,
2013-04-28 06:11:00,57.2,54.9,30.05,North,352,0.0,-999.0,92,0.00,,,0.00,Wunderground v.1.12,2013-04-28 10:11:00,
2013-04-28 06:16:00,57.2,54.9,30.05,SSE,163,0.0,-999.0,92,0.00,,,0.00,Wunderground v.1.12,2013-04-28 10:16:00,
2013-04-28 06:21:00,57.2,54.9,30.05,ESE,116,0.0,-999.0,92,0.00,,,0.00,Wunderground v.1.12,2013-04-28 10:21:00,
2013-04-28 06:26:00,57.2,54.9,30.05,ESE,119,0.0,-999.0,92,0.00,,,0.00,Wunderground v.1.12,2013-04-28 10:26:00,
2013-04-28 06:31:00,57.2,54.9,30.05,East,91,0.0,-999.0,92,0.00,,,0.00,Wunderground v.1.12,2013-04-28 10:31:00,
2013-04-28 06:36:00,57.0,54.7,30.05,NNE,14,0.0,-999.0,92,0.00,,,0.00,Wunderground v.1.12,2013-04-28 10:36:00,
2013-04-28 06:41:00,57.2,54.9,30.04,West,270,0.0,-999.0,92,0.00,,,0.00,Wunderground v.1.12,2013-04-28 10:41:00,
2013-04-28 06:46:00,57.2,54.9,30.04,South,181,0.0,-999.0,92,0.00,,,0.00,Wunderground v.1.12,2013-04-28 10:46:00,
2013-04-28 06:51:00,57.2,54.9,30.04,SSE,158,0.0,-999.0,92,0.00,,,0.00,Wunderground v.1.12,2013-04-28 10:51:00,
2013-04-28 06:56:00,57.2,54.9,30.05,NNE,13,0.0,-999.0,92,0.00,,,0.00,Wunderground v.1.12,2013-04-28 10:56:00,
2013-04-28 07:01:00,57.2,54.9,30.05,ESE,120,0.0,-999.0,92,0.00,,,0.00,Wunderground v.1.12,2013-04-28 11:01:00,
2013-04-28 07:06:00,57.2,54.9,30.05,East,95,0.0,-999.0,92,0.00,,,0.00,Wunderground v.1.12,2013-04-28 11:06:00,
2013-04-28 07:11:00,57.2,54.9,30.06,NNW,343,0.0,-999.0,92,0.00,,,0.00,Wunderground v.1.12,2013-04-28 11:11:00,
2013-04-28 07:16:00,57.2,54.9,30.06,North,2,0.0,-999.0,92,0.00,,,0.00,Wunderground v.1.12,2013-04-28 11:16:00,
2013-04-28 07:21:00,57.2,54.9,30.06,NE,44,0.0,-999.0,92,0.00,,,0.00,Wunderground v.1.12,2013-04-28 11:21:00,
2013-04-28 07:26:00,57.2,54.9,30.05,NE,44,0.0,-999.0,92,0.00,,,0.00,Wunderground v.1.12,2013-04-28 11:26:00,
2013-04-28 07:31:00,57.2,54.9,30.05,NE,46,0.0,-999.0,92,0.00,,,0.00,Wunderground v.1.12,2013-04-28 11:31:00,
2013-04-28 07:36:00,57.2,54.9,30.05,NE,46,0.0,-999.0,92,0.00,,,0.00,Wunderground v.1.12,2013-04-28 11:36:00,
2013-04-28 07:41:00,57.2,54.9,30.06,NE,55,0.0,-999.0,92,0.00,,,0.00,Wunderground v.1.12,2013-04-28 11:41:00,
2013-04-28 07:46:00,57.2,54.9,30.06,ESE,116,0.0,-999.0,92,0.00,,,0.00,Wunderground v.1.12,2013-04-28 11:46:00,
2013-04-28 07:51:00,57.2,54.9,30.06,ESE,116,0.0,-999.0,92,0.00,,,0.00,Wunderground v.1.12,2013-04-28 11:51:00,
2013-04-28 07:56:00,57.2,54.9,30.06,SE,129,0.0,-999.0,92,0.00,,,0.00,Wunderground v.1.12,2013-04-28 11:56:00,
2013-04-28 08:01:00,57.2,54.9,30.06,SE,143,0.0,-999.0,92,0.00,,,0.00,Wunderground v.1.12,2013-04-28 12:01:00,
2013-04-28 08:07:00,57.2,54.9,30.06,SE,134,0.0,-999.0,92,0.00,,,0.00,Wunderground v.1.12,2013-04-28 12:07:00,
2013-04-28 08:12:00,57.2,54.9,30.06,SSE,163,0.0,-999.0,92,0.00,,,0.00,Wunderground v.1.12,2013-04-28 12:12:00,
2013-04-28 08:17:00,57.2,54.9,30.06,SSE,157,0.0,-999.0,92,0.00,,,0.00,Wunderground v.1.12,2013-04-28 12:17:00,
2013-04-28 08:22:00,57.2,54.9,30.06,ESE,113,0.0,-999.0,92,0.00,,,0.00,Wunderground v.1.12,2013-04-28 12:22:00,
2013-04-28 08:27:00,57.2,55.2,30.07,ESE,109,0.0,-999.0,93,0.00,,,0.00,Wunderground v.1.12,2013-04-28 12:27:00,
2013-04-28 08:32:00,57.2,55.2,30.07,ESE,106,0.0,-999.0,93,0.00,,,0.00,Wunderground v.1.12,2013-04-28 12:32:00,
2013-04-28 08:37:00,57.3,55.3,30.07,ESE,106,0.0,-999.0,93,0.00,,,0.00,Wunderground v.1.12,2013-04-28 12:37:00,
2013-04-28 08:42:00,57.3,55.3,30.07,NNW,341,0.0,-999.0,93,0.00,,,0.00,Wunderground v.1.12,2013-04-28 12:42:00,
2013-04-28 08:47:00,57.3,55.3,30.07,NNW,342,0.0,-999.0,93,0.00,,,0.00,Wunderground v.1.12,2013-04-28 12:47:00,
2013-04-28 08:52:00,57.5,55.5,30.07,North,355,0.0,-999.0,93,0.00,,,0.00,Wunderground v.1.12,2013-04-28 12:52:00,
2013-04-28 08:57:00,57.5,55.5,30.07,North,2,0.0,-999.0,93,0.00,,,0.00,Wunderground v.1.12,2013-04-28 12:57:00,
2013-04-28 09:02:00,57.5,55.5,30.07,East,95,0.0,-999.0,93,0.00,,,0.00,Wunderground v.1.12,2013-04-28 13:02:00,
2013-04-28 09:07:00,57.5,55.5,30.07,East,99,0.0,-999.0,93,0.00,,,0.00,Wunderground v.1.12,2013-04-28 13:07:00,
2013-04-28 09:12:00,57.6,55.6,30.07,East,84,0.0,-999.0,93,0.00,,,0.00,Wunderground v.1.12,2013-04-28 13:12:00,
2013-04-28 09:17:00,57.6,55.6,30.07,NE,50,0.0,-999.0,93,0.00,,,0.00,Wunderground v.1.12,2013-04-28 13:17:00,
2013-04-28 09:22:00,57.6,55.6,30.07,SSE,154,0.0,-999.0,93,0.00,,,0.00,Wunderground v.1.12,2013-04-28 13:22:00,
2013-04-28 09:27:00,57.8,55.8,30.07,SSE,153,0.0,-999.0,93,0.00,,,0.00,Wunderground v.1.12,2013-04-28 13:27:00,
2013-04-28 09:32:00,57.8,56.1,30.07,SE,137,0.0,-999.0,94,0.00,,,0.00,Wunderground v.1.12,2013-04-28 13:32:00,
2013-04-28 09:37:00,57.8,56.1,30.07,ESE,115,0.0,-999.0,94,0.00,,,0.00,Wunderground v.1.12,2013-04-28 13:37:00,
2013-04-28 09:42:00,58.0,56.3,30.07,ENE,65,0.0,-999.0,94,0.00,,,0.00,Wunderground v.1.12,2013-04-28 13:42:00,
2013-04-28 09:47:00,58.0,56.3,30.07,ENE,61,0.0,-999.0,94,0.00,,,0.00,Wunderground v.1.12,2013-04-28 13:47:00,
2013-04-28 09:52:00,58.0,56.3,30.07,ENE,61,0.0,-999.0,94,0.00,,,0.00,Wunderground v.1.12,2013-04-28 13:52:00,
2013-04-28 09:58:00,58.0,56.3,30.07,ENE,61,0.0,-999.0,94,0.00,,,0.00,Wunderground v.1.12,2013-04-28 13:58:00,
2013-04-28 10:03:00,58.0,56.3,30.07,ESE,116,0.0,-999.0,94,0.00,,,0.00,Wunderground v.1.12,2013-04-28 14:03:00,
2013-04-28 10:08:00,58.1,56.4,30.07,ESE,116,0.0,-999.0,94,0.00,,,0.00,Wunderground v.1.12,2013-04-28 14:08:00,
2013-04-28 10:13:00,58.1,56.4,30.07,NE,54,0.0,-999.0,94,0.00,,,0.00,Wunderground v.1.12,2013-04-28 14:13:00,
2013-04-28 10:19:00,58.1,56.4,30.07,NE,54,0.0,-999.0,94,0.00,,,0.00,Wunderground v.1.12,2013-04-28 14:19:00,
2013-04-28 10:24:00,58.1,56.4,30.07,ENE,58,0.0,-999.0,94,0.00,,,0.00,Wunderground v.1.12,2013-04-28 14:24:00,
2013-04-28 10:29:00,58.1,56.4,30.08,ENE,60,0.0,-999.0,94,0.00,,,0.00,Wunderground v.1.12,2013-04-28 14:29:00,
2013-04-28 10:34:00,58.3,56.6,30.08,NE,55,0.0,-999.0,94,0.00,,,0.00,Wunderground v.1.12,2013-04-28 14:34:00,
2013-04-28 10:39:00,58.3,56.6,30.08,NE,53,0.0,-999.0,94,0.00,,,0.00,Wunderground v.1.12,2013-04-28 14:39:00,
2013-04-28 10:44:00,58.3,56.6,30.07,East,96,0.0,-999.0,94,0.00,,,0.00,Wunderground v.1.12,2013-04-28 14:44:00,
2013-04-28 10:49:00,58.4,56.7,30.07,East,96,0.0,-999.0,94,0.00,,,0.00,Wunderground v.1.12,2013-04-28 14:49:00,
2013-04-28 10:54:00,58.6,56.9,30.07,East,92,0.0,-999.0,94,0.00,,,0.00,Wunderground v.1.12,2013-04-28 14:54:00,
2013-04-28 10:59:00,58.7,57.0,30.07,ENE,78,0.0,-999.0,94,0.00,,,0.00,Wunderground v.1.12,2013-04-28 14:59:00,
2013-04-28 11:04:00,58.9,57.2,30.07,ENE,62,0.0,-999.0,94,0.00,,,0.00,Wunderground v.1.12,2013-04-28 15:04:00,
2013-04-28 11:09:00,59.2,57.5,30.07,ENE,64,0.0,-999.0,94,0.00,,,0.00,Wunderground v.1.12,2013-04-28 15:09:00,
2013-04-28 11:14:00,59.2,57.5,30.07,NE,47,0.0,-999.0,94,0.00,,,0.00,Wunderground v.1.12,2013-04-28 15:14:00,
2013-04-28 11:19:00,59.3,57.6,30.07,NE,47,0.0,-999.0,94,0.00,,,0.00,Wunderground v.1.12,2013-04-28 15:19:00,
2013-04-28 11:24:00,59.5,57.8,30.07,NE,48,0.0,-999.0,94,0.00,,,0.00,Wunderground v.1.12,2013-04-28 15:24:00,
2013-04-28 11:29:00,59.6,57.9,30.07,NE,48,0.0,-999.0,94,0.00,,,0.00,Wunderground v.1.12,2013-04-28 15:29:00,
2013-04-28 11:34:00,59.6,57.9,30.07,NE,47,0.0,-999.0,94,0.00,,,0.00,Wunderground v.1.12,2013-04-28 15:34:00,
2013-04-28 11:39:00,59.8,58.1,30.07,NE,47,0.0,-999.0,94,0.00,,,0.00,Wunderground v.1.12,2013-04-28 15:39:00,
2013-04-28 11:44:00,59.8,58.1,30.06,NE,47,0.0,-999.0,94,0.00,,,0.00,Wunderground v.1.12,2013-04-28 15:44:00,
2013-04-28 11:49:00,59.8,58.1,30.06,NE,47,0.0,-999.0,94,0.00,,,0.00,Wunderground v.1.12,2013-04-28 15:49:00,
2013-04-28 11:54:00,59.8,58.1,30.06,NE,47,0.0,-999.0,94,0.00,,,0.00,Wunderground v.1.12,2013-04-28 15:54:00,
2013-04-28 11:59:00,59.9,58.2,30.06,NE,47,0.0,-999.0,94,0.00,,,0.00,Wunderground v.1.12,2013-04-28 15:59:00,
2013-04-28 12:05:00,59.9,58.2,30.06,NE,47,0.0,-999.0,94,0.00,,,0.00,Wunderground v.1.12,2013-04-28 16:05:00,
2013-04-28 12:10:00,60.1,58.4,30.06,NE,46,0.0,-999.0,94,0.00,,,0.00,Wunderground v.1.12,2013-04-28 16:10:00,
2013-04-28 12:15:00,60.1,58.4,30.06,NE,46,0.0,-999.0,94,0.00,,,0.00,Wunderground v.1.12,2013-04-28 16:15:00,
2013-04-28 12:20:00,60.1,58.4,30.06,NE,46,0.0,-999.0,94,0.00,,,0.00,Wunderground v.1.12,2013-04-28 16:20:00,
2013-04-28 12:25:00,60.2,58.5,30.05,NNE,13,0.0,-999.0,94,0.00,,,0.00,Wunderground v.1.12,2013-04-28 16:25:00,
2013-04-28 12:30:00,60.2,58.5,30.05,NNE,13,0.0,-999.0,94,0.00,,,0.00,Wunderground v.1.12,2013-04-28 16:30:00,
2013-04-28 12:35:00,60.4,58.7,30.05,NNE,13,0.0,-999.0,94,0.00,,,0.00,Wunderground v.1.12,2013-04-28 16:35:00,
2013-04-28 12:40:00,60.4,58.7,30.05,NNE,13,0.0,-999.0,94,0.00,,,0.00,Wunderground v.1.12,2013-04-28 16:40:00,
2013-04-28 12:45:00,60.5,58.8,30.05,NNE,12,0.0,-999.0,94,0.00,,,0.00,Wunderground v.1.12,2013-04-28 16:45:00,
2013-04-28 12:50:00,60.5,58.8,30.05,NNE,13,0.0,-999.0,94,0.00,,,0.00,Wunderground v.1.12,2013-04-28 16:50:00,
2013-04-28 12:55:00,60.7,59.0,30.05,NE,44,0.0,-999.0,94,0.00,,,0.00,Wunderground v.1.12,2013-04-28 16:55:00,
2013-04-28 13:00:00,60.7,59.0,30.05,ENE,64,0.0,-999.0,94,0.00,,,0.00,Wunderground v.1.12,2013-04-28 17:00:00,
2013-04-28 13:06:00,60.7,59.0,30.05,ENE,64,0.0,-999.0,94,0.00,,,0.00,Wunderground v.1.12,2013-04-28 17:06:00,
2013-04-28 13:11:00,60.7,59.0,30.04,ENE,64,0.0,-999.0,94,0.00,,,0.00,Wunderground v.1.12,2013-04-28 17:11:00,
2013-04-28 13:16:00,60.7,59.0,30.04,ENE,60,0.0,-999.0,94,0.00,,,0.00,Wunderground v.1.12,2013-04-28 17:16:00,
2013-04-28 13:21:00,60.9,59.2,30.04,NE,50,0.0,-999.0,94,0.00,,,0.00,Wunderground v.1.12,2013-04-28 17:21:00,
2013-04-28 13:26:00,60.9,59.2,30.04,NE,50,0.0,-999.0,94,0.00,,,0.00,Wunderground v.1.12,2013-04-28 17:26:00,
2013-04-28 13:31:00,60.9,59.2,30.04,NE,48,0.0,-999.0,94,0.00,,,0.00,Wunderground v.1.12,2013-04-28 17:31:00,
2013-04-28 13:36:00,61.0,59.3,30.04,NE,48,0.0,-999.0,94,0.00,,,0.00,Wunderground v.1.12,2013-04-28 17:36:00,
2013-04-28 13:41:00,61.0,59.3,30.03,NE,51,0.0,-999.0,94,0.00,,,0.00,Wunderground v.1.12,2013-04-28 17:41:00,
2013-04-28 13:46:00,61.0,59.3,30.03,NE,51,0.0,-999.0,94,0.00,,,0.00,Wunderground v.1.12,2013-04-28 17:46:00,
2013-04-28 13:51:00,61.2,59.5,30.03,NE,46,0.0,-999.0,94,0.00,,,0.00,Wunderground v.1.12,2013-04-28 17:51:00,
2013-04-28 13:56:00,61.2,59.5,30.03,NE,46,0.0,-999.0,94,0.00,,,0.00,Wunderground v.1.12,2013-04-28 17:56:00,
2013-04-28 14:01:00,61.2,59.5,30.03,NE,46,0.0,-999.0,94,0.00,,,0.00,Wunderground v.1.12,2013-04-28 18:01:00,
2013-04-28 14:06:00,61.0,59.3,30.03,NE,55,0.0,-999.0,94,0.00,,,0.00,Wunderground v.1.12,2013-04-28 18:06:00,
2013-04-28 14:11:00,60.9,59.2,30.03,NE,48,0.0,-999.0,94,0.00,,,0.00,Wunderground v.1.12,2013-04-28 18:11:00,
2013-04-28 14:16:00,60.7,59.0,30.03,NE,50,0.0,-999.0,94,0.00,,,0.00,Wunderground v.1.12,2013-04-28 18:16:00,
2013-04-28 14:21:00,60.5,58.8,30.03,NE,41,0.0,-999.0,94,0.00,,,0.00,Wunderground v.1.12,2013-04-28 18:21:00,
2013-04-28 14:26:00,60.5,58.8,30.02,ENE,78,0.0,-999.0,94,0.00,,,0.00,Wunderground v.1.12,2013-04-28 18:26:00,
2013-04-28 14:31:00,60.4,58.7,30.02,ENE,78,0.0,-999.0,94,0.00,,,0.00,Wunderground v.1.12,2013-04-28 18:31:00,
2013-04-28 14:36:00,60.2,58.2,30.02,ENE,58,0.0,-999.0,93,0.00,,,0.00,Wunderground v.1.12,2013-04-28 18:36:00,
2013-04-28 14:41:00,60.1,58.1,30.02,ENE,67,0.0,-999.0,93,0.00,,,0.00,Wunderground v.1.12,2013-04-28 18:41:00,
2013-04-28 14:46:00,60.1,58.1,30.02,ENE,67,0.0,-999.0,93,0.00,,,0.00,Wunderground v.1.12,2013-04-28 18:46:00,
2013-04-28 14:51:00,60.1,58.1,30.02,ENE,62,0.0,-999.0,93,0.00,,,0.00,Wunderground v.1.12,2013-04-28 18:51:00,
2013-04-28 14:56:00,59.9,57.9,30.02,ENE,62,0.0,-999.0,93,0.00,,,0.00,Wunderground v.1.12,2013-04-28 18:56:00,
2013-04-28 15:01:00,59.9,57.9,30.02,ENE,62,0.0,-999.0,93,0.00,,,0.00,Wunderground v.1.12,2013-04-28 19:01:00,
2013-04-28 15:06:00,59.9,57.9,30.02,NE,43,0.0,-999.0,93,0.00,,,0.00,Wunderground v.1.12,2013-04-28 19:06:00,
2013-04-28 15:12:00,59.9,57.9,30.02,NE,43,0.0,-999.0,93,0.00,,,0.00,Wunderground v.1.12,2013-04-28 19:12:00,
2013-04-28 15:17:00,59.9,57.9,30.02,NE,43,0.0,-999.0,93,0.00,,,0.00,Wunderground v.1.12,2013-04-28 19:17:00,
2013-04-28 15:22:00,59.9,57.9,30.02,NNE,33,0.0,-999.0,93,0.00,,,0.00,Wunderground v.1.12,2013-04-28 19:22:00,
2013-04-28 15:27:00,59.9,57.9,30.02,NE,34,0.0,-999.0,93,0.00,,,0.00,Wunderground v.1.12,2013-04-28 19:27:00,
2013-04-28 15:32:00,59.9,57.9,30.02,NE,36,0.0,-999.0,93,0.00,,,0.00,Wunderground v.1.12,2013-04-28 19:32:00,
2013-04-28 15:37:00,59.9,57.9,30.02,NE,36,0.0,-999.0,93,0.00,,,0.00,Wunderground v.1.12,2013-04-28 19:37:00,
2013-04-28 15:42:00,59.9,57.9,30.00,NE,43,0.0,-999.0,93,0.00,,,0.00,Wunderground v.1.12,2013-04-28 19:42:00,
2013-04-28 15:47:00,59.8,57.8,30.00,NE,38,0.0,-999.0,93,0.00,,,0.00,Wunderground v.1.12,2013-04-28 19:47:00,
2013-04-28 15:52:00,59.8,57.8,30.00,NE,41,0.0,-999.0,93,0.00,,,0.00,Wunderground v.1.12,2013-04-28 19:52:00,
2013-04-28 15:57:00,59.8,57.8,30.00,WNW,294,0.0,-999.0,93,0.00,,,0.00,Wunderground v.1.12,2013-04-28 19:57:00,
2013-04-28 16:02:00,59.9,57.9,30.00,SSE,147,0.0,-999.0,93,0.00,,,0.00,Wunderground v.1.12,2013-04-28 20:02:00,
2013-04-28 16:07:00,59.9,58.2,30.00,SE,146,0.0,-999.0,94,0.00,,,0.00,Wunderground v.1.12,2013-04-28 20:07:00,
2013-04-28 16:12:00,59.9,58.2,30.01,SE,140,0.0,-999.0,94,0.00,,,0.00,Wunderground v.1.12,2013-04-28 20:12:00,
2013-04-28 16:17:00,60.1,58.4,30.01,East,91,0.0,-999.0,94,0.00,,,0.00,Wunderground v.1.12,2013-04-28 20:17:00,
2013-04-28 16:22:00,60.1,58.4,30.01,East,94,0.0,-999.0,94,0.00,,,0.00,Wunderground v.1.12,2013-04-28 20:22:00,
2013-04-28 16:27:00,60.1,58.4,30.00,East,94,0.0,-999.0,94,0.00,,,0.00,Wunderground v.1.12,2013-04-28 20:27:00,
2013-04-28 16:32:00,60.1,58.4,30.00,East,94,0.0,-999.0,94,0.00,,,0.00,Wunderground v.1.12,2013-04-28 20:32:00,
2013-04-28 16:37:00,60.1,58.4,30.00,East,94,0.0,-999.0,94,0.00,,,0.00,Wunderground v.1.12,2013-04-28 20:37:00,
2013-04-28 16:42:00,60.1,58.4,30.00,East,94,0.0,-999.0,94,0.00,,,0.00,Wunderground v.1.12,2013-04-28 20:42:00,
2013-04-28 16:47:00,60.2,58.5,30.00,ENE,78,0.0,-999.0,94,0.00,,,0.00,Wunderground v.1.12,2013-04-28 20:47:00,
2013-04-28 16:52:00,60.2,58.5,30.00,ENE,78,0.0,-999.0,94,0.00,,,0.00,Wunderground v.1.12,2013-04-28 20:52:00,
2013-04-28 16:57:00,60.2,58.5,30.00,ENE,77,0.0,-999.0,94,0.00,,,0.00,Wunderground v.1.12,2013-04-28 20:57:00,
2013-04-28 17:02:00,60.2,58.5,30.00,ENE,77,0.0,-999.0,94,0.00,,,0.00,Wunderground v.1.12,2013-04-28 21:02:00,
2013-04-28 17:08:00,60.2,58.5,30.00,ENE,77,0.0,-999.0,94,0.00,,,0.00,Wunderground v.1.12,2013-04-28 21:08:00,
2013-04-28 17:13:00,60.4,58.7,30.01,ENE,78,0.0,-999.0,94,0.00,,,0.00,Wunderground v.1.12,2013-04-28 21:13:00,
2013-04-28 17:18:00,60.5,58.8,30.01,ENE,77,0.0,-999.0,94,0.00,,,0.00,Wunderground v.1.12,2013-04-28 21:18:00,
2013-04-28 17:23:00,60.5,58.8,30.01,North,352,0.0,-999.0,94,0.00,,,0.00,Wunderground v.1.12,2013-04-28 21:23:00,
2013-04-28 17:28:00,60.1,58.4,30.03,NNW,348,0.0,-999.0,94,0.00,,,0.00,Wunderground v.1.12,2013-04-28 21:28:00,
2013-04-28 17:33:00,59.8,58.1,30.03,NNW,345,0.0,-999.0,94,0.00,,,0.00,Wunderground v.1.12,2013-04-28 21:33:00,
2013-04-28 17:38:00,59.6,57.9,30.03,NNW,345,0.0,-999.0,94,0.00,,,0.00,Wunderground v.1.12,2013-04-28 21:38:00,
2013-04-28 17:43:00,59.5,57.8,30.03,NNW,345,0.0,-999.0,94,0.00,,,0.00,Wunderground v.1.12,2013-04-28 21:43:00,
2013-04-28 17:49:00,59.3,57.6,30.03,NNW,343,0.0,-999.0,94,0.00,,,0.00,Wunderground v.1.12,2013-04-28 21:49:00,
2013-04-28 17:54:00,59.2,57.5,30.03,NNW,343,0.0,-999.0,94,0.00,,,0.00,Wunderground v.1.12,2013-04-28 21:54:00,
2013-04-28 17:59:00,59.2,57.5,30.05,NNW,345,0.0,-999.0,94,0.00,,,0.00,Wunderground v.1.12,2013-04-28 21:59:00,
2013-04-28 18:04:00,59.0,57.3,30.05,NNW,345,0.0,-999.0,94,0.00,,,0.00,Wunderground v.1.12,2013-04-28 22:04:00,
2013-04-28 18:10:00,59.0,57.3,30.05,NNW,345,0.0,-999.0,94,0.00,,,0.00,Wunderground v.1.12,2013-04-28 22:10:00,
2013-04-28 18:15:00,59.0,57.3,30.03,NNW,345,0.0,-999.0,94,0.00,,,0.00,Wunderground v.1.12,2013-04-28 22:15:00,
2013-04-28 18:20:00,58.9,57.2,30.03,NNW,345,0.0,-999.0,94,0.00,,,0.00,Wunderground v.1.12,2013-04-28 22:20:00,
2013-04-28 18:25:00,58.9,57.2,30.03,NNW,345,0.0,-999.0,94,0.00,,,0.00,Wunderground v.1.12,2013-04-28 22:25:00,
2013-04-28 18:30:00,58.9,57.2,30.02,NNW,345,0.0,-999.0,94,0.00,,,0.00,Wunderground v.1.12,2013-04-28 22:30:00,
2013-04-28 18:35:00,58.7,57.0,30.02,NNW,345,0.0,-999.0,94,0.00,,,0.00,Wunderground v.1.12,2013-04-28 22:35:00,
2013-04-28 18:40:00,58.7,57.0,30.02,NNW,345,0.0,-999.0,94,0.00,,,0.00,Wunderground v.1.12,2013-04-28 22:40:00,
2013-04-28 18:45:00,58.7,57.0,30.02,NNW,345,0.0,-999.0,94,0.00,,,0.00,Wunderground v.1.12,2013-04-28 22:45:00,
2013-04-28 18:50:00,58.6,56.9,30.02,NNW,345,0.0,-999.0,94,0.00,,,0.00,Wunderground v.1.12,2013-04-28 22:50:00,
2013-04-28 18:55:00,58.6,56.9,30.02,NNW,345,0.0,-999.0,94,0.00,,,0.00,Wunderground v.1.12,2013-04-28 22:55:00,
2013-04-28 19:00:00,58.4,56.7,30.02,NNW,345,0.0,-999.0,94,0.00,,,0.00,Wunderground v.1.12,2013-04-28 23:00:00,
2013-04-28 19:05:00,58.4,56.7,30.02,NNW,345,0.0,-999.0,94,0.00,,,0.00,Wunderground v.1.12,2013-04-28 23:05:00,
2013-04-28 19:10:00,58.4,56.7,30.02,NNW,345,0.0,-999.0,94,0.00,,,0.00,Wunderground v.1.12,2013-04-28 23:10:00,
2013-04-28 19:15:00,58.3,56.6,30.02,NNW,345,0.0,-999.0,94,0.00,,,0.00,Wunderground v.1.12,2013-04-28 23:15:00,
2013-04-28 19:20:00,58.3,56.6,30.02,NNW,345,0.0,-999.0,94,0.00,,,0.00,Wunderground v.1.12,2013-04-28 23:20:00,
2013-04-28 19:25:00,58.3,56.6,30.01,NNW,345,0.0,-999.0,94,0.00,,,0.00,Wunderground v.1.12,2013-04-28 23:25:00,
2013-04-28 19:31:00,58.1,56.4,30.01,NNW,345,0.0,-999.0,94,0.00,,,0.00,Wunderground v.1.12,2013-04-28 23:31:00,
2013-04-28 19:36:00,58.1,56.4,30.01,NNW,345,0.0,-999.0,94,0.00,,,0.00,Wunderground v.1.12,2013-04-28 23:36:00,
2013-04-28 19:41:00,58.1,56.4,30.01,NNW,345,0.0,-999.0,94,0.00,,,0.00,Wunderground v.1.12,2013-04-28 23:41:00,
2013-04-28 19:46:00,58.0,56.3,30.01,NNW,345,0.0,-999.0,94,0.00,,,0.00,Wunderground v.1.12,2013-04-28 23:46:00,
2013-04-28 19:51:00,58.0,56.3,30.01,NNW,345,0.0,-999.0,94,0.00,,,0.00,Wunderground v.1.12,2013-04-28 23:51:00,
2013-04-28 19:56:00,58.0,56.3,30.01,NNW,345,0.0,-999.0,94,0.00,,,0.00,Wunderground v.1.12,2013-04-28 23:56:00,
2013-04-28 20:01:00,58.0,56.3,30.01,NNW,346,0.0,-999.0,94,0.00,,,0.00,Wunderground v.1.12,2013-04-29 00:01:00,
2013-04-28 20:06:00,57.8,56.1,30.01,NNW,346,0.0,-999.0,94,0.00,,,0.00,Wunderground v.1.12,2013-04-29 00:06:00,
2013-04-28 20:11:00,57.8,56.1,30.00,NNW,346,0.0,-999.0,94,0.00,,,0.00,Wunderground v.1.12,2013-04-29 00:11:00,
2013-04-28 20:16:00,57.8,56.1,30.00,NNW,346,0.0,-999.0,94,0.00,,,0.00,Wunderground v.1.12,2013-04-29 00:16:00,
2013-04-28 20:21:00,57.8,56.1,30.00,NNW,346,0.0,-999.0,94,0.00,,,0.00,Wunderground v.1.12,2013-04-29 00:21:00,
2013-04-28 20:26:00,57.6,55.9,30.00,NNW,346,0.0,-999.0,94,0.00,,,0.00,Wunderground v.1.12,2013-04-29 00:26:00,
2013-04-28 20:31:00,57.6,55.9,30.00,NNW,346,0.0,-999.0,94,0.00,,,0.00,Wunderground v.1.12,2013-04-29 00:31:00,
2013-04-28 20:36:00,57.6,55.9,30.00,NNW,346,0.0,-999.0,94,0.00,,,0.00,Wunderground v.1.12,2013-04-29 00:36:00,
2013-04-28 20:41:00,57.6,55.9,30.00,NNW,346,0.0,-999.0,94,0.00,,,0.00,Wunderground v.1.12,2013-04-29 00:41:00,
2013-04-28 20:46:00,57.5,55.8,30.00,NNW,346,0.0,-999.0,94,0.00,,,0.00,Wunderground v.1.12,2013-04-29 00:46:00,
2013-04-28 20:51:00,57.5,55.8,30.00,NNW,346,0.0,-999.0,94,0.00,,,0.00,Wunderground v.1.12,2013-04-29 00:51:00,
2013-04-28 20:56:00,57.5,55.8,30.00,NNW,346,0.0,-999.0,94,0.00,,,0.00,Wunderground v.1.12,2013-04-29 00:56:00,
2013-04-28 21:01:00,57.5,55.8,30.00,NNW,346,0.0,-999.0,94,0.00,,,0.00,Wunderground v.1.12,2013-04-29 01:01:00,
2013-04-28 21:06:00,57.5,55.8,30.00,NNW,346,0.0,-999.0,94,0.00,,,0.00,Wunderground v.1.12,2013-04-29 01:06:00,
2013-04-28 21:11:00,57.5,55.8,30.00,NNW,346,0.0,-999.0,94,0.00,,,0.00,Wunderground v.1.12,2013-04-29 01:11:00,
2013-04-28 21:16:00,57.5,55.8,30.00,NNW,346,0.0,-999.0,94,0.00,,,0.00,Wunderground v.1.12,2013-04-29 01:16:00,
2013-04-28 21:21:00,57.5,55.8,30.00,NNW,346,0.0,-999.0,94,0.00,,,0.00,Wunderground v.1.12,2013-04-29 01:21:00,
2013-04-28 21:26:00,57.3,55.6,30.00,NNW,346,0.0,-999.0,94,0.00,,,0.00,Wunderground v.1.12,2013-04-29 01:26:00,
2013-04-28 21:31:00,57.3,55.6,30.00,South,173,0.0,-999.0,94,0.00,,,0.00,Wunderground v.1.12,2013-04-29 01:31:00,
2013-04-28 21:36:00,57.3,55.6,30.00,SSE,160,0.0,-999.0,94,0.00,,,0.00,Wunderground v.1.12,2013-04-29 01:36:00,
2013-04-28 21:41:00,57.3,55.6,29.99,SE,139,0.0,-999.0,94,0.00,,,0.00,Wunderground v.1.12,2013-04-29 01:41:00,
2013-04-28 21:46:00,57.3,55.6,29.99,NNE,30,0.0,-999.0,94,0.00,,,0.00,Wunderground v.1.12,2013-04-29 01:46:00,
2013-04-28 21:51:00,57.2,55.5,29.99,South,174,0.0,-999.0,94,0.00,,,0.00,Wunderground v.1.12,2013-04-29 01:51:00,
2013-04-28 21:56:00,57.2,55.5,29.98,NE,54,0.0,-999.0,94,0.00,,,0.00,Wunderground v.1.12,2013-04-29 01:56:00,
2013-04-28 22:01:00,57.2,55.5,29.98,NE,54,0.0,-999.0,94,0.00,,,0.00,Wunderground v.1.12,2013-04-29 02:01:00,
2013-04-28 22:06:00,57.0,55.6,29.98,NE,54,0.0,-999.0,95,0.00,,,0.00,Wunderground v.1.12,2013-04-29 02:06:00,
2013-04-28 22:11:00,57.0,55.6,30.00,NE,55,0.0,-999.0,95,0.00,,,0.00,Wunderground v.1.12,2013-04-29 02:11:00,
2013-04-28 22:16:00,57.0,55.6,30.00,NNE,16,0.0,-999.0,95,0.00,,,0.00,Wunderground v.1.12,2013-04-29 02:16:00,
2013-04-28 22:21:00,57.0,55.6,30.00,NE,43,0.0,-999.0,95,0.00,,,0.00,Wunderground v.1.12,2013-04-29 02:21:00,
2013-04-28 22:26:00,57.0,55.6,30.01,NE,43,0.0,-999.0,95,0.00,,,0.00,Wunderground v.1.12,2013-04-29 02:26:00,
2013-04-28 22:32:00,56.9,55.5,30.01,East,81,0.0,-999.0,95,0.00,,,0.00,Wunderground v.1.12,2013-04-29 02:32:00,
2013-04-28 22:37:00,56.9,55.5,30.01,ESE,103,0.0,-999.0,95,0.00,,,0.00,Wunderground v.1.12,2013-04-29 02:37:00,
2013-04-28 22:42:00,56.9,55.5,30.00,ESE,115,0.0,-999.0,95,0.00,,,0.00,Wunderground v.1.12,2013-04-29 02:42:00,
2013-04-28 22:47:00,56.9,55.5,30.00,ENE,72,0.0,-999.0,95,0.00,,,0.00,Wunderground v.1.12,2013-04-29 02:47:00,
2013-04-28 22:52:00,56.9,55.5,30.00,SE,144,0.0,-999.0,95,0.00,,,0.00,Wunderground v.1.12,2013-04-29 02:52:00,
2013-04-28 22:57:00,56.9,55.5,30.00,SE,144,0.0,-999.0,95,0.00,,,0.00,Wunderground v.1.12,2013-04-29 02:57:00,
2013-04-28 23:02:00,56.9,55.5,30.00,SE,143,0.0,-999.0,95,0.00,,,0.00,Wunderground v.1.12,2013-04-29 03:02:00,
2013-04-28 23:07:00,56.9,55.5,30.00,SSE,149,0.0,-999.0,95,0.00,,,0.00,Wunderground v.1.12,2013-04-29 03:07:00,
2013-04-28 23:12:00,56.9,55.5,29.99,SSE,147,0.0,-999.0,95,0.00,,,0.00,Wunderground v.1.12,2013-04-29 03:12:00,
2013-04-28 23:17:00,56.7,55.3,29.99,SSE,147,0.0,-999.0,95,0.00,,,0.00,Wunderground v.1.12,2013-04-29 03:17:00,
2013-04-28 23:23:00,56.7,55.3,29.99,NE,34,0.0,-999.0,95,0.00,,,0.00,Wunderground v.1.12,2013-04-29 03:23:00,
2013-04-28 23:28:00,56.7,55.3,29.99,NE,36,0.0,-999.0,95,0.00,,,0.00,Wunderground v.1.12,2013-04-29 03:28:00,
2013-04-28 23:34:00,56.7,55.3,29.99,NNW,328,0.0,-999.0,95,0.00,,,0.00,Wunderground v.1.12,2013-04-29 03:34:00,
2013-04-28 23:39:00,56.7,55.3,29.99,NNW,329,0.0,-999.0,95,0.00,,,0.00,Wunderground v.1.12,2013-04-29 03:39:00,
2013-04-28 23:44:00,56.6,55.2,29.98,NNW,331,0.0,-999.0,95,0.00,,,0.00,Wunderground v.1.12,2013-04-29 03:44:00,
2013-04-28 23:49:00,56.6,55.2,29.98,NNW,331,0.0,-999.0,95,0.00,,,0.00,Wunderground v.1.12,2013-04-29 03:49:00,
2013-04-28 23:54:00,56.6,55.2,29.98,NNW,331,0.0,-999.0,95,0.00,,,0.00,Wunderground v.1.12,2013-04-29 03:54:00,
2013-04-28 23:59:00,56.6,55.2,29.97,NNW,331,0.0,-999.0,95,0.00,,,0.00,Wunderground v.1.12,2013-04-29 03:59:00,